Stations météo

réclame
Mon MeteoGroup
Granada/Aeropuerto, Espagne (8419): Température de l'air & dewpoint: 18.10.2017 00:00:00 - 24.10.2017 00:00:00 (CEST)Granada/Aeropuerto, Espagne (8419): Vitesse du vent: 18.10.2017 00:00:00 - 24.10.2017 00:00:00 (CEST)Granada/Aeropuerto, Espagne (8419): Direction du vent: 18.10.2017 00:00:00 - 24.10.2017 00:00:00 (CEST)Granada/Aeropuerto, Espagne (8419): reduced air pressure: 18.10.2017 00:00:00 - 24.10.2017 00:00:00 (CEST)Granada/Aeropuerto, Espagne (8419): visibility: 18.10.2017 00:00:00 - 24.10.2017 00:00:00 (CEST)
Date & Time tt [°C] td [°C] ff [km/h] ff [knt] dd ppp [hPa] vv [km]
24.10.2017 00:00:00 15,6 12,5 4 2 W 1024,3 25
23.10.2017 23:00:00 15,9 12,5 4 2 S 1023,8 15
23.10.2017 22:00:00 17,1 13,6 0 0 N 1023,3 22
23.10.2017 21:00:00 18,8 12,5 4 2 NNW 1022,5 30
23.10.2017 20:00:00 20,6 13,5 11 6 SSW 1021,2 30
23.10.2017 19:00:00 23,3 13,5 15 8 S 1019,9 30
23.10.2017 18:00:00 27,0 8,5 0 0 N 1019,2 30
23.10.2017 17:00:00 26,8 7,5 2 1 NNW 1019,5 30
23.10.2017 16:00:00 25,5 10,5 4 2 NNW 1020,3 30
23.10.2017 15:00:00 25,5 11,4 2 1 SSW 1021,2 30
23.10.2017 14:00:00 24,2 11,9 0 0 N 1022,3 30
23.10.2017 13:00:00 23,2 11,7 0 0 N 1023,2 25
23.10.2017 12:00:00 20,2 11,7 0 0 N 1024,4 30
23.10.2017 11:00:00 17,9 12,0 0 0 N 1024,8 30
23.10.2017 10:00:00 14,1 10,7 0 0 N 1025,2 17
23.10.2017 09:00:00 10,0 8,9 0 0 N 1025,8 30
23.10.2017 08:00:00 9,7 8,6 4 2 SSW 1025,5 20
23.10.2017 07:00:00 10,2 9,0 0 0 N 1025,5 13
23.10.2017 06:00:00 10,4 9,2 2 1 SSW 1025,3 11
23.10.2017 05:00:00 10,9 9,7 0 0 N 1025,1 10
23.10.2017 04:00:00 11,6 10,2 0 0 N 1025,1 20
23.10.2017 03:00:00 12,5 11,1 4 2 S 1025,0 21
23.10.2017 02:00:00 12,9 11,3 0 0 N 1025,3 27
23.10.2017 01:00:00 13,6 11,6 0 0 N 1025,1 22
23.10.2017 00:00:00 14,5 12,4 0 0 N 1024,9 24
22.10.2017 23:00:00 16,1 12,6 4 2 SSW 1024,2 30
22.10.2017 22:00:00 17,7 12,6 0 0 N 1023,1 30
22.10.2017 21:00:00 19,1 12,8 9 5 SW 1022,4 30
22.10.2017 20:00:00 20,8 12,4 11 6 S 1021,5 30
22.10.2017 19:00:00 24,7 11,0 5 3 W 1020,3 30
22.10.2017 18:00:00 26,0 7,4 9 5 NW 1019,8 30
22.10.2017 17:00:00 26,4 11,6 4 2 NNW 1019,8 30
22.10.2017 16:00:00 26,3 11,7 4 2 W 1020,0 30
22.10.2017 15:00:00 25,8 12,3 0 0 N 1020,9 30
22.10.2017 14:00:00 23,7 13,4 4 2 NNW 1022,3 20
22.10.2017 13:00:00 22,6 13,2 2 1 SSW 1023,1 3,1
22.10.2017 12:00:00 19,4 13,6 0 0 N 1024,1 11
22.10.2017 11:00:00 17,3 13,4 0 0 N 1024,5 10
22.10.2017 10:00:00 14,1 11,8 0 0 N 1025,1 2,3
22.10.2017 09:00:00 11,0 10,1 0 0 N 1025,6 12
22.10.2017 08:00:00 10,6 9,7 0 0 N 1025,0 10
22.10.2017 07:00:00 11,1 10,3 4 2 SW 1024,7 13
22.10.2017 06:00:00 11,5 10,6 0 0 N 1024,6 8
22.10.2017 05:00:00 12,4 11,3 4 2 SW 1024,4 16
22.10.2017 04:00:00 12,2 10,9 0 0 N 1024,9 14
22.10.2017 03:00:00 13,3 12,0 0 0 N 1024,3 30
22.10.2017 02:00:00 14,0 12,6 4 2 SW 1024,3 25
22.10.2017 01:00:00 14,6 12,8 2 1 WSW 1023,8 22
22.10.2017 00:00:00 15,4 13,1 0 0 N 1023,8 30
21.10.2017 23:00:00 17,1 13,5 2 1 S 1023,4 21
21.10.2017 22:00:00 17,3 13,8 5 3 WSW 1022,9 30
21.10.2017 21:00:00 18,7 13,4 4 2 SW 1021,9 30
21.10.2017 20:00:00 20,9 12,8 5 3 N 1020,6 30
21.10.2017 19:00:00 23,3 14,5 8 4 N 1019,7 30
21.10.2017 18:00:00 25,8 13,5 9 5 W 1019,3 30
21.10.2017 17:00:00 25,9 11,7 5 3 W 1019,5 30
21.10.2017 16:00:00 25,3 12,1 4 2 W 1020,5 30
21.10.2017 15:00:00 24,3 12,0 4 2 SSE 1021,2 30
21.10.2017 14:00:00 23,0 12,1 0 0 N 1022,5 30
21.10.2017 13:00:00 21,4 12,7 2 1 E 1023,7 30
21.10.2017 12:00:00 19,4 13,1 0 0 N 1024,5 16
21.10.2017 11:00:00 16,2 12,0 0 0 N 1025,3 25
21.10.2017 10:00:00 13,8 10,9 0 0 N 1025,5 12
21.10.2017 09:00:00 9,6 8,6 0 0 N 1026,1 10
21.10.2017 08:00:00 9,3 8,5 2 1 S 1025,5 15
21.10.2017 07:00:00 9,5 8,4 0 0 N 1025,0 15
21.10.2017 06:00:00 10,1 9,2 0 0 N 1024,6 22
21.10.2017 05:00:00 10,6 9,5 2 1 SSW 1024,3 19
21.10.2017 04:00:00 10,9 9,8 2 1 W 1024,3 15
21.10.2017 03:00:00 11,5 10,4 4 2 WSW 1024,6 17
21.10.2017 02:00:00 12,1 10,8 0 0 N 1024,3 30
21.10.2017 01:00:00 13,3 11,5 0 0 N 1024,1 30
21.10.2017 00:00:00 13,9 11,9 4 2 SSW 1023,8 30
20.10.2017 23:00:00 14,6 12,5 8 4 WSW 1023,4 30
20.10.2017 22:00:00 16,0 12,9 9 5 SSW 1022,6 30
20.10.2017 21:00:00 16,8 12,9 0 0 N 1021,7 30
20.10.2017 20:00:00 18,3 13,3 8 4 WSW 1020,8 30
20.10.2017 19:00:00 21,4 13,4 9 5 W 1019,2 30
20.10.2017 18:00:00 23,1 13,2 16 9 W 1018,7 30
20.10.2017 17:00:00 23,6 12,9 21 11 W 1018,7 30
20.10.2017 16:00:00 23,8 13,3 15 8 WNW 1018,6 30
20.10.2017 15:00:00 23,4 12,2 5 3 W 1019,1 30
20.10.2017 14:00:00 22,3 12,5 4 2 W 1019,9 30
20.10.2017 13:00:00 20,9 12,3 9 5 WNW 1020,7 26
20.10.2017 12:00:00 19,7 12,0 9 5 W 1020,8 23
20.10.2017 11:00:00 18,5 11,8 5 3 SW 1020,7 30
20.10.2017 10:00:00 15,9 13,4 9 5 W 1020,7 13
20.10.2017 09:00:00 12,4 11,3 4 2 NNW 1020,9 30
20.10.2017 08:00:00 13,0 11,9 2 1 ESE 1020,5 30
20.10.2017 07:00:00 12,5 11,6 5 3 S 1020,4 8
20.10.2017 06:00:00 12,9 11,6 0 0 N 1019,8 10
20.10.2017 05:00:00 13,2 12,1 0 0 N 1019,7 9
20.10.2017 04:00:00 13,1 12,0 0 0 N 1019,8 10
20.10.2017 03:00:00 12,8 11,7 0 0 N 1019,7 10
20.10.2017 02:00:00 12,1 11,2 0 0 N 1019,7 10
20.10.2017 01:00:00 11,8 10,5 4 2 S 1019,7 12
20.10.2017 00:00:00 12,4 10,8 2 1 S 1019,1 14
19.10.2017 23:00:00 13,3 11,4 4 2 WSW 1018,6 20
19.10.2017 22:00:00 13,5 11,4 0 0 N 1018,0 30
19.10.2017 21:00:00 14,2 11,5 9 5 WSW 1017,0 30
19.10.2017 20:00:00 15,9 10,0 4 2 N 1015,8 30
19.10.2017 19:00:00 17,2 8,8 11 6 NNW 1014,4 30
19.10.2017 18:00:00 18,6 8,0 16 9 N 1013,4 30
19.10.2017 17:00:00 18,4 8,6 18 10 NNW 1012,9 30
19.10.2017 16:00:00 17,7 10,7 15 8 W 1012,9 30
19.10.2017 15:00:00 18,6 11,2 15 8 W 1012,6 30
19.10.2017 14:00:00 19,4 12,1 11 6 W 1012,7 30
19.10.2017 13:00:00 18,6 12,3 8 4 WNW 1013,5 30
19.10.2017 12:00:00 17,3 11,3 4 2 WNW 1013,5 30
19.10.2017 11:00:00 14,0 10,3 4 2 SW 1014,0 30
19.10.2017 10:00:00 13,0 11,1 2 1 S 1013,5 30
19.10.2017 09:00:00 11,9 10,6 9 5 NNE 1012,8 30
19.10.2017 08:00:00 12,9 12,3 4 2 N 1011,9 15
19.10.2017 07:00:00 13,1 12,2 2 1 N 1011,6 13
19.10.2017 06:00:00 13,2 12,3 4 2 ESE 1011,8 27
19.10.2017 05:00:00 13,1 12,2 11 6 ESE 1011,9 30
19.10.2017 04:00:00 13,3 12,0 2 1 SE 1013,7 6
19.10.2017 03:00:00 13,9 11,8 4 2 SW 1013,4 30
19.10.2017 02:00:00 14,3 12,8 5 3 WSW 1013,4 9
19.10.2017 01:00:00 14,4 12,8 4 2 SW 1014,2 17
19.10.2017 00:00:00 14,3 12,8 4 2 SSE 1014,4 30
18.10.2017 23:00:00 14,3 12,8 4 2 SE 1014,7 18
18.10.2017 22:00:00 14,2 12,6 4 2 SW 1014,4 30
18.10.2017 21:00:00 14,4 12,9 9 5 WSW 1014,3 30
18.10.2017 20:00:00 14,7 13,4 15 8 W 1014,1 6
18.10.2017 19:00:00 15,2 13,6 4 2 W 1013,4 22
18.10.2017 18:00:00 15,9 13,2 13 7 NW 1013,0 3,5
18.10.2017 17:00:00 17,1 13,7 9 5 W 1013,0 30
18.10.2017 16:00:00 16,1 14,0 8 4 WSW 1013,6 30
18.10.2017 15:00:00 14,9 13,8 8 4 W 1014,4 3,0
18.10.2017 14:00:00 14,5 13,4 13 7 W 1015,0 4,0
18.10.2017 13:00:00 16,5 14,9 4 2 NNW 1014,4 18
18.10.2017 12:00:00 - - - - - - -
18.10.2017 11:00:00 14,5 12,5 5 3 ESE 1016,1 18
18.10.2017 10:00:00 13,8 12,9 18 10 E 1016,3 20
18.10.2017 09:00:00 13,9 12,8 5 3 SW 1016,2 6
18.10.2017 08:00:00 14,5 12,2 28 15 W 1016,0 10
18.10.2017 07:00:00 18,7 10,0 11 6 SSW 1014,1 22
18.10.2017 06:00:00 15,7 10,7 5 3 W 1015,4 20
18.10.2017 05:00:00 16,2 9,6 9 5 S 1015,5 22
18.10.2017 04:00:00 16,7 9,1 0 0 N 1016,6 23
18.10.2017 03:00:00 17,8 9,2 8 4 SW 1016,7 22
18.10.2017 02:00:00 20,0 8,6 15 8 S 1016,2 22
18.10.2017 01:00:00 16,7 10,6 4 2 W 1017,8 18
18.10.2017 00:00:00 17,6 12,5 0 0 N 1018,4 14

tt = Température de l'air
td = dewpoint
ff = Vitesse du vent
dd = Direction du vent
ppp = reduced air pressure
vv = visibility

stations d'obs. à proximité